| time (UTC) | temp F | wind direction | speed MPH | gust MPH | rain 1hr in | rain 24hr in | rain mn in | humidity % | barometer mb |
| 20260507191804 | 60 | 250 | 3.0 | 5.0 | 0.00 | 0.00 | 0.00 | 66 | 1008.8 |
| 20260507191304 | 60 | 250 | 4.0 | 7.0 | 0.00 | 0.00 | 0.00 | 67 | 1008.8 |
| 20260507190805 | 60 | 260 | 2.0 | 5.0 | 0.00 | 0.00 | 0.00 | 64 | 1008.8 |
| 20260507185306 | 61 | 230 | 3.0 | 5.0 | 0.00 | 0.00 | 0.00 | 65 | 1008.8 |
| 20260507184805 | 61 | 279 | 5.0 | 7.0 | 0.00 | 0.00 | 0.00 | 64 | 1008.8 |
| 20260507183304 | 61 | 286 | 5.0 | 8.0 | 0.00 | 0.00 | 0.00 | 66 | 1008.9 |
| 20260507182805 | 60 | 291 | 4.0 | 6.0 | 0.00 | 0.00 | 0.00 | 68 | 1008.9 |
| 20260507182307 | 61 | 277 | 4.0 | 9.0 | 0.00 | 0.00 | 0.00 | 67 | 1008.9 |
| 20260507180805 | 61 | 280 | 3.0 | 7.0 | 0.00 | 0.00 | 0.00 | 69 | 1009.0 |
| 20260507180304 | 61 | 276 | 5.0 | 10.0 | 0.00 | 0.00 | 0.00 | 67 | 1009.0 |
| 20260507175805 | 60 | 315 | 6.0 | 8.0 | 0.00 | 0.00 | 0.00 | 67 | 1008.9 |
| 20260507174804 | 60 | 290 | 4.0 | 9.0 | 0.00 | 0.00 | 0.00 | 67 | 1008.9 |
| 20260507174305 | 61 | 294 | 4.0 | 9.0 | 0.00 | 0.00 | 0.00 | 69 | 1009.0 |
| 20260507173804 | 61 | 231 | 2.0 | 6.0 | 0.00 | 0.00 | 0.00 | 69 | 1009.0 |
| 20260507173304 | 61 | 281 | 5.0 | 7.0 | 0.00 | 0.00 | 0.00 | 67 | 1009.0 |
| 20260507172804 | 62 | 282 | 5.0 | 10.0 | 0.00 | 0.00 | 0.00 | 66 | 1009.0 |
| 20260507170804 | 62 | 271 | 5.0 | 9.0 | 0.00 | 0.00 | 0.00 | 66 | 1009.0 |
| 20260507170305 | 62 | 258 | 5.0 | 8.0 | 0.00 | 0.00 | 0.00 | 66 | 1008.9 |
| 20260507165805 | 63 | 286 | 5.0 | 10.0 | 0.00 | 0.00 | 0.00 | 63 | 1008.6 |
| 20260507165306 | 63 | 286 | 5.0 | 7.0 | 0.00 | 0.00 | 0.00 | 64 | 1009.0 |
| 20260507164805 | 63 | 286 | 7.0 | 9.0 | 0.00 | 0.00 | 0.00 | 63 | 1009.1 |
| 20260507161804 | 62 | 247 | 4.0 | 7.0 | 0.00 | 0.00 | 0.00 | 65 | 1009.2 |
| 20260507161305 | 62 | 243 | 6.0 | 9.0 | 0.00 | 0.00 | 0.00 | 64 | 1009.3 |
| 20260507155306 | 64 | 274 | 4.0 | 7.0 | 0.00 | 0.00 | 0.00 | 66 | 1009.3 |
| 20260507154805 | 63 | 270 | 7.0 | 12.0 | 0.00 | 0.00 | 0.00 | 66 | 1009.4 |
| 20260507154305 | 63 | 302 | 6.0 | 10.0 | 0.00 | 0.00 | 0.00 | 65 | 1009.3 |
| 20260507153304 | 61 | 229 | 6.0 | 9.0 | 0.00 | 0.00 | 0.00 | 67 | 1009.1 |
| 20260507152805 | 61 | 226 | 6.0 | 10.0 | 0.00 | 0.00 | 0.00 | 67 | 1009.0 |
| 20260507152306 | 61 | 205 | 5.0 | 7.0 | 0.00 | 0.00 | 0.00 | 66 | 1009.0 |
| 20260507151805 | 61 | 189 | 3.0 | 5.0 | 0.00 | 0.00 | 0.00 | 68 | 1008.9 |
| 20260507144306 | 60 | 117 | 3.0 | 6.0 | 0.00 | 0.00 | 0.00 | 67 | 1009.0 |
| 20260507143805 | 59 | 118 | 4.0 | 6.0 | 0.00 | 0.00 | 0.00 | 68 | 1009.2 |
| 20260507143306 | 59 | 182 | 2.0 | 5.0 | 0.00 | 0.00 | 0.00 | 68 | 1009.6 |
| 20260507140805 | 60 | 295 | 3.0 | 7.0 | 0.00 | 0.00 | 0.00 | 63 | 1010.3 |
| 20260507140306 | 60 | 311 | 3.0 | 7.0 | 0.00 | 0.00 | 0.00 | 62 | 1010.2 |
| 20260507132307 | 60 | 285 | 2.0 | 3.0 | 0.00 | 0.00 | 0.00 | 62 | 1010.6 |
| 20260507130805 | 61 | 297 | 2.0 | 3.0 | 0.00 | 0.00 | 0.00 | 62 | 1010.8 |
| 20260507130305 | 61 | 287 | 2.0 | 5.0 | 0.00 | 0.00 | 0.00 | 62 | 1010.9 |
| 20260507125806 | 61 | 294 | 1.0 | 2.0 | 0.00 | 0.00 | 0.00 | 65 | 1011.1 |
| 20260507124305 | 62 | 286 | 2.0 | 3.0 | 0.00 | 0.00 | 0.00 | 56 | 1011.4 |
| 20260507122805 | 62 | 292 | 4.0 | 7.0 | 0.00 | 0.00 | 0.00 | 57 | 1011.3 |
| 20260507120805 | 62 | 287 | 2.0 | 6.0 | 0.00 | 0.00 | 0.00 | 57 | 1011.6 |
| 20260507120306 | 62 | 302 | 5.0 | 10.0 | 0.00 | 0.00 | 0.00 | 56 | 1011.5 |
| 20260507115805 | 62 | 282 | 4.0 | 6.0 | 0.00 | 0.00 | 0.00 | 58 | 1011.5 |
| 20260507115307 | 62 | 296 | 6.0 | 12.0 | 0.00 | 0.00 | 0.00 | 57 | 1011.6 |
| 20260507114805 | 63 | 273 | 4.0 | 10.0 | 0.00 | 0.00 | 0.00 | 56 | 1011.4 |
| 20260507113805 | 64 | 285 | 2.0 | 5.0 | 0.00 | 0.00 | 0.00 | 58 | 1011.5 |
| 20260507111305 | 65 | 306 | 4.0 | 12.0 | 0.00 | 0.00 | 0.00 | 60 | 1011.5 |
| 20260507110805 | 65 | 293 | 2.0 | 9.0 | 0.00 | 0.00 | 0.00 | 59 | 1011.4 |
| 20260507105307 | 64 | 286 | 3.0 | 7.0 | 0.00 | 0.00 | 0.00 | 60 | 1011.1 |
| 20260507104805 | 64 | 290 | 3.0 | 13.0 | 0.00 | 0.00 | 0.00 | 63 | 1011.4 |
| 20260507104306 | 63 | 291 | 3.0 | 10.0 | 0.00 | 0.00 | 0.00 | 64 | 1011.3 |
| 20260507101306 | 63 | 288 | 4.0 | 7.0 | 0.00 | 0.00 | 0.00 | 64 | 1011.3 |
| 20260507093305 | 60 | 259 | 1.0 | 3.0 | 0.00 | 0.00 | 0.00 | 67 | 1011.2 |
| 20260507092806 | 61 | 274 | 3.0 | 5.0 | 0.00 | 0.00 | 0.00 | 67 | 1011.2 |
| 20260507084806 | 59 | 240 | 0.0 | 1.0 | 0.00 | 0.00 | 0.00 | 75 | 1010.9 |
| 20260507083805 | 58 | 147 | 1.0 | 2.0 | 0.00 | 0.00 | 0.00 | 74 | 1011.0 |
| 20260507081305 | 59 | 87 | 1.0 | 3.0 | 0.00 | 0.00 | 0.00 | 74 | 1011.0 |
| 20260507080805 | 59 | 52 | 1.0 | 2.0 | 0.00 | 0.00 | 0.00 | 74 | 1011.2 |
| 20260507080305 | 59 | 28 | 1.0 | 2.0 | 0.00 | 0.00 | 0.00 | 75 | 1011.2 |
| 20260507073305 | 56 | 37 | 2.0 | 3.0 | 0.00 | 0.00 | 0.00 | 78 | 1011.2 |
| 20260507072805 | 56 | 40 | 2.0 | 3.0 | 0.00 | 0.00 | 0.00 | 77 | 1011.1 |
| 20260507071305 | 55 | 44 | 2.0 | 3.0 | 0.00 | 0.00 | 0.00 | 77 | 1011.1 |
| 20260507070805 | 55 | 40 | 3.0 | 3.0 | 0.00 | 0.00 | 0.00 | 77 | 1011.1 |
| 20260507070305 | 55 | 30 | 2.0 | 3.0 | 0.00 | 0.00 | 0.00 | 77 | 1011.1 |
| 20260507065805 | 55 | 27 | 2.0 | 3.0 | 0.00 | 0.00 | 0.00 | 77 | 1011.0 |
| 20260507065306 | 55 | 27 | 2.0 | 3.0 | 0.00 | 0.00 | 0.00 | 77 | 1010.5 |
| 20260507064805 | 54 | 28 | 2.0 | 3.0 | 0.00 | 0.00 | 0.00 | 77 | 1010.6 |
| 20260507063305 | 54 | 25 | 3.0 | 3.0 | 0.00 | 0.00 | 0.00 | 77 | 1010.5 |
| 20260507062805 | 54 | 38 | 3.0 | 3.0 | 0.00 | 0.00 | 0.00 | 76 | 1010.4 |
| 20260507062306 | 54 | 32 | 3.0 | 3.0 | 0.00 | 0.00 | 0.00 | 76 | 1010.4 |
| 20260507061805 | 54 | 27 | 3.0 | 5.0 | 0.00 | 0.00 | 0.00 | 76 | 1010.5 |
| 20260507061305 | 54 | 22 | 3.0 | 5.0 | 0.00 | 0.00 | 0.00 | 76 | 1010.4 |
| 20260507060805 | 54 | 28 | 3.0 | 5.0 | 0.00 | 0.00 | 0.00 | 76 | 1010.4 |
| 20260507054805 | 54 | 37 | 4.0 | 5.0 | 0.00 | 0.00 | 0.00 | 73 | 1010.6 |
| 20260507054305 | 54 | 25 | 3.0 | 5.0 | 0.00 | 0.00 | 0.00 | 73 | 1010.4 |
| 20260507053805 | 54 | 25 | 3.0 | 5.0 | 0.00 | 0.00 | 0.00 | 73 | 1010.6 |
| 20260507053305 | 54 | 25 | 3.0 | 5.0 | 0.00 | 0.00 | 0.00 | 74 | 1010.6 |
| 20260507051805 | 53 | 32 | 3.0 | 5.0 | 0.00 | 0.00 | 0.00 | 72 | 1010.1 |
| 20260507050306 | 53 | 26 | 3.0 | 5.0 | 0.00 | 0.00 | 0.00 | 73 | 1009.9 |
| 20260507044304 | 54 | 17 | 2.0 | 5.0 | 0.00 | 0.00 | 0.00 | 74 | 1010.6 |
| 20260507043805 | 54 | 3 | 2.0 | 3.0 | 0.00 | 0.00 | 0.00 | 75 | 1010.7 |
| 20260507042307 | 54 | 27 | 5.0 | 6.0 | 0.00 | 0.00 | 0.00 | 77 | 1010.7 |
| 20260507041806 | 54 | 34 | 3.0 | 5.0 | 0.00 | 0.00 | 0.00 | 77 | 1010.6 |
| 20260507040305 | 54 | 46 | 5.0 | 6.0 | 0.00 | 0.00 | 0.00 | 77 | 1011.1 |
| 20260507035805 | 54 | 30 | 3.0 | 6.0 | 0.00 | 0.00 | 0.00 | 77 | 1011.1 |
| 20260507035306 | 54 | 42 | 4.0 | 5.0 | 0.00 | 0.00 | 0.00 | 77 | 1011.1 |
| 20260507033805 | 54 | 42 | 5.0 | 6.0 | 0.00 | 0.00 | 0.00 | 76 | 1011.2 |
| 20260507032306 | 54 | 36 | 3.0 | 5.0 | 0.00 | 0.00 | 0.00 | 74 | 1011.1 |
| 20260507031305 | 54 | 39 | 3.0 | 5.0 | 0.00 | 0.00 | 0.00 | 73 | 1011.0 |
| 20260507030805 | 54 | 33 | 5.0 | 6.0 | 0.00 | 0.00 | 0.00 | 73 | 1011.3 |
| 20260507030305 | 54 | 33 | 4.0 | 6.0 | 0.00 | 0.00 | 0.00 | 73 | 1011.2 |
| 20260507025805 | 54 | 42 | 4.0 | 6.0 | 0.00 | 0.00 | 0.00 | 72 | 1011.0 |
| 20260507025306 | 54 | 42 | 3.0 | 5.0 | 0.00 | 0.00 | 0.00 | 71 | 1011.4 |
| 20260507024805 | 54 | 31 | 3.0 | 5.0 | 0.00 | 0.00 | 0.00 | 70 | 1011.3 |
| 20260507024305 | 54 | 34 | 3.0 | 5.0 | 0.00 | 0.00 | 0.00 | 69 | 1011.5 |
| 20260507023804 | 54 | 37 | 4.0 | 5.0 | 0.00 | 0.00 | 0.00 | 69 | 1011.5 |
| 20260507022306 | 55 | 38 | 4.0 | 5.0 | 0.00 | 0.00 | 0.00 | 69 | 1011.7 |
| 20260507021805 | 55 | 40 | 3.0 | 5.0 | 0.00 | 0.00 | 0.00 | 69 | 1011.7 |
| 20260507021304 | 55 | 43 | 3.0 | 5.0 | 0.00 | 0.00 | 0.00 | 68 | 1011.7 |
| 20260507020805 | 55 | 35 | 4.0 | 6.0 | 0.00 | 0.00 | 0.00 | 68 | 1011.8 |
| 20260507020305 | 55 | 48 | 3.0 | 6.0 | 0.00 | 0.00 | 0.00 | 68 | 1011.8 |
| 20260507015805 | 55 | 32 | 4.0 | 6.0 | 0.00 | 0.00 | 0.00 | 67 | 1011.9 |
| 20260507014805 | 55 | 48 | 2.0 | 6.0 | 0.00 | 0.00 | 0.00 | 68 | 1011.9 |
| 20260507014305 | 55 | 51 | 2.0 | 5.0 | 0.00 | 0.00 | 0.00 | 66 | 1012.0 |
| 20260507012805 | 55 | 43 | 3.0 | 6.0 | 0.00 | 0.00 | 0.00 | 65 | 1012.3 |
| 20260507012306 | 55 | 39 | 4.0 | 7.0 | 0.00 | 0.00 | 0.00 | 65 | 1012.4 |
| 20260507011305 | 55 | 41 | 3.0 | 6.0 | 0.00 | 0.00 | 0.00 | 64 | 1012.6 |
| 20260507005306 | 55 | 47 | 4.0 | 6.0 | 0.00 | 0.00 | 0.00 | 63 | 1012.7 |
| 20260507004805 | 55 | 27 | 5.0 | 7.0 | 0.00 | 0.00 | 0.00 | 62 | 1012.8 |
| 20260507003305 | 55 | 46 | 4.0 | 10.0 | 0.00 | 0.00 | 0.00 | 63 | 1013.0 |
| 20260507002805 | 55 | 46 | 5.0 | 10.0 | 0.00 | 0.00 | 0.00 | 63 | 1012.9 |
| 20260507001805 | 55 | 40 | 5.0 | 9.0 | 0.00 | 0.00 | 0.00 | 65 | 1013.0 |
| 20260507001305 | 55 | 37 | 5.0 | 9.0 | 0.00 | 0.00 | 0.00 | 65 | 1013.0 |
| 20260507000804 | 55 | 42 | 3.0 | 7.0 | 0.00 | 0.00 | 0.00 | 66 | 1013.1 |
| 20260506235306 | 55 | 36 | 5.0 | 7.0 | 0.00 | 0.00 | 0.00 | 66 | 1013.1 |
| 20260506234805 | 55 | 44 | 5.0 | 7.0 | 0.00 | 0.00 | 0.00 | 67 | 1012.9 |
| 20260506234304 | 55 | 31 | 2.0 | 8.0 | 0.00 | 0.00 | 0.00 | 67 | 1013.0 |
| 20260506233805 | 55 | 27 | 3.0 | 6.0 | 0.00 | 0.00 | 0.00 | 67 | 1013.1 |
| 20260506233305 | 55 | 57 | 3.0 | 5.0 | 0.00 | 0.00 | 0.00 | 66 | 1013.2 |
| 20260506232306 | 55 | 43 | 4.0 | 9.0 | 0.00 | 0.00 | 0.00 | 66 | 1013.0 |
| 20260506231804 | 56 | 39 | 3.0 | 7.0 | 0.00 | 0.00 | 0.00 | 65 | 1013.1 |
| 20260506231305 | 56 | 27 | 2.0 | 5.0 | 0.00 | 0.00 | 0.00 | 65 | 1013.1 |
| 20260506225804 | 56 | 34 | 3.0 | 7.0 | 0.00 | 0.00 | 0.00 | 65 | 1013.2 |
| 20260506222306 | 56 | 41 | 5.0 | 9.0 | 0.00 | 0.00 | 0.00 | 65 | 1013.3 |
| 20260506221805 | 56 | 25 | 5.0 | 12.0 | 0.00 | 0.00 | 0.00 | 64 | 1013.4 |
| 20260506221304 | 56 | 30 | 5.0 | 12.0 | 0.00 | 0.00 | 0.00 | 64 | 1013.4 |
| 20260506220805 | 56 | 20 | 6.0 | 12.0 | 0.00 | 0.00 | 0.00 | 64 | 1013.3 |
| 20260506214305 | 56 | 31 | 5.0 | 12.0 | 0.00 | 0.00 | 0.00 | 67 | 1013.5 |
| 20260506213805 | 57 | 40 | 5.0 | 12.0 | 0.00 | 0.00 | 0.00 | 67 | 1013.5 |
| 20260506212805 | 57 | 21 | 4.0 | 10.0 | 0.00 | 0.00 | 0.00 | 67 | 1013.4 |
| 20260506212306 | 57 | 33 | 5.0 | 9.0 | 0.00 | 0.00 | 0.00 | 67 | 1013.5 |
| 20260506211804 | 57 | 38 | 5.0 | 7.0 | 0.00 | 0.00 | 0.00 | 67 | 1013.5 |
| 20260506211304 | 57 | 27 | 6.0 | 12.0 | 0.00 | 0.00 | 0.00 | 66 | 1013.4 |
| 20260506210805 | 57 | 31 | 3.0 | 10.0 | 0.00 | 0.00 | 0.00 | 67 | 1013.2 |
| 20260506204804 | 57 | 52 | 3.0 | 9.0 | 0.00 | 0.00 | 0.00 | 69 | 1013.1 |
| 20260506204304 | 57 | 41 | 6.0 | 12.0 | 0.00 | 0.00 | 0.00 | 69 | 1013.0 |
| 20260506200304 | 58 | 44 | 4.0 | 12.0 | 0.00 | 0.00 | 0.00 | 68 | 1012.8 |
| 20260506195804 | 58 | 46 | 6.0 | 12.0 | 0.00 | 0.00 | 0.00 | 67 | 1012.6 |
| 20260506195306 | 59 | 39 | 6.0 | 13.0 | 0.00 | 0.00 | 0.00 | 67 | 1012.7 |
| 20260506194804 | 59 | 49 | 6.0 | 17.0 | 0.00 | 0.00 | 0.00 | 67 | 1012.7 |
| 20260506194304 | 59 | 28 | 4.0 | 13.0 | 0.00 | 0.00 | 0.00 | 66 | 1012.5 |